STARLINK-1988 (47584 NORAD) Tracking and Keplerian Element Data

This shows tracking and keplerian element data for the satellite.

Feedback or suggestion? Click here.




ElementValue
Catalog47584
NameSTARLINK-1988
Epoch Orbit454
Epoch Day60.16668981
Epoch Year2021
RAAN1.711
Inclination53.0545
Eccentricity0.0001224
Argument of Perigee63.1851
Mean Anonmoly256.7601
Mean Motion15.6274299
Decay Rate0.00036922
L11 47584U 21009AN 21060.16668981 .00036922 00000-0 40740-3 0 9994
L22 47584 53.0545 1.7110 0001224 63.1851 256.7601 15.62742990 4540

Live tracking and technical data element details for STARLINK-1988 (NORAD 47584). STARLINK-1988 can be tracked NOW for your location showing map with azimuth and elevation plus other details from your city location.

Track the satellite on the map from your city or location and see movement details for azimuth, elevation, latitude, longitude, range, height, and movement on the map or in text.







IsCatalogInMostPopularTable: catalog: 47584, numindb: 4
Update: records affected: 1



GetName: 47584 STARLINK-1988

Hit Count: updated at: Mon, 01 Mar 2021 16:30:07 GMT